Time,TemperatureF,DewpointF,PressureIn,WindDirection,WindDirectionDegrees,WindSpeedMPH,WindSpeedGustMPH,Humidity,HourlyPrecipIn,Conditions,Clouds,dailyrainin,SoftwareType,DateUTC
2013-03-20 00:01:00,42.0,40.0,29.58,ESE,117,0.0,0.0,92,-99.99,,,-99.99,,2013-03-20 07:01:00,
2013-03-20 00:11:00,42.0,40.0,29.58,ESE,117,0.0,0.0,92,-99.99,,,-99.99,,2013-03-20 07:11:00,
2013-03-20 00:21:00,42.0,40.0,29.56,ENE,76,0.0,3.0,93,-99.99,,,-99.99,,2013-03-20 07:21:00,
2013-03-20 00:32:00,42.0,40.0,29.56,East,94,0.0,5.0,93,-99.99,,,-99.99,,2013-03-20 07:32:00,
2013-03-20 00:41:00,42.0,40.0,29.56,East,94,0.0,5.0,93,-99.99,,,-99.99,,2013-03-20 07:41:00,
2013-03-20 00:52:00,42.0,40.0,29.56,SSE,162,1.0,2.0,94,-99.99,,,-99.99,,2013-03-20 07:52:00,
2013-03-20 01:11:00,43.0,41.0,29.55,SSE,165,0.0,1.0,94,-99.99,,,-99.99,,2013-03-20 08:11:00,
2013-03-20 01:21:00,43.0,41.0,29.55,SSE,165,0.0,1.0,94,-99.99,,,-99.99,,2013-03-20 08:21:00,
2013-03-20 01:32:00,43.0,42.0,29.54,East,101,0.0,4.0,95,-99.99,,,-99.99,,2013-03-20 08:32:00,
2013-03-20 01:42:00,43.0,42.0,29.54,East,101,0.0,4.0,95,-99.99,,,-99.99,,2013-03-20 08:42:00,
2013-03-20 01:52:00,43.0,42.0,29.53,ENE,75,1.0,4.0,95,-99.99,,,-99.99,,2013-03-20 08:52:00,
2013-03-20 02:02:00,43.0,42.0,29.52,ENE,74,1.0,5.0,95,-99.99,,,-99.99,,2013-03-20 09:02:00,
2013-03-20 02:11:00,43.0,42.0,29.52,ENE,74,1.0,5.0,95,-99.99,,,-99.99,,2013-03-20 09:11:00,
2013-03-20 02:22:00,44.0,43.0,29.52,ESE,120,1.0,4.0,95,-99.99,,,-99.99,,2013-03-20 09:22:00,
2013-03-20 02:32:00,44.0,43.0,29.50,ESE,108,1.0,7.0,96,-99.99,,,-99.99,,2013-03-20 09:32:00,
2013-03-20 02:42:00,44.0,43.0,29.50,ESE,108,1.0,7.0,96,-99.99,,,-99.99,,2013-03-20 09:42:00,
2013-03-20 02:52:00,45.0,44.0,29.49,East,100,2.0,4.0,96,-99.99,,,-99.99,,2013-03-20 09:52:00,
2013-03-20 03:02:00,45.0,44.0,29.47,ESE,103,2.0,6.0,96,-99.99,,,-99.99,,2013-03-20 10:02:00,
2013-03-20 03:12:00,45.0,44.0,29.47,ESE,103,2.0,6.0,96,-99.99,,,-99.99,,2013-03-20 10:12:00,
2013-03-20 03:22:00,45.0,44.0,29.47,SE,130,2.0,7.0,95,-99.99,,,-99.99,,2013-03-20 10:22:00,
2013-03-20 03:32:00,46.0,45.0,29.46,SE,139,1.0,5.0,95,-99.99,,,-99.99,,2013-03-20 10:32:00,
2013-03-20 03:42:00,46.0,45.0,29.46,SE,139,1.0,5.0,95,-99.99,,,-99.99,,2013-03-20 10:42:00,
2013-03-20 03:52:00,46.0,44.0,29.45,SSE,160,2.0,7.0,92,-99.99,,,-99.99,,2013-03-20 10:52:00,
2013-03-20 04:02:00,47.0,45.0,29.45,SSE,147,4.0,7.0,91,-99.99,,,-99.99,,2013-03-20 11:02:00,
2013-03-20 04:11:00,47.0,45.0,29.45,SSE,147,4.0,7.0,91,-99.99,,,-99.99,,2013-03-20 11:11:00,
2013-03-20 04:22:00,46.0,44.0,29.44,SSE,152,0.0,3.0,91,-99.99,,,-99.99,,2013-03-20 11:22:00,
2013-03-20 04:32:00,46.0,44.0,29.43,South,181,1.0,4.0,91,-99.99,,,-99.99,,2013-03-20 11:32:00,
2013-03-20 04:42:00,46.0,44.0,29.43,South,181,1.0,4.0,91,-99.99,,,-99.99,,2013-03-20 11:42:00,
2013-03-20 04:52:00,46.0,44.0,29.43,SSE,156,1.0,5.0,91,-99.99,,,-99.99,,2013-03-20 11:52:00,
2013-03-20 05:01:00,46.0,44.0,29.43,SSE,162,2.0,7.0,92,-99.99,,,-99.99,,2013-03-20 12:01:00,
2013-03-20 05:11:00,46.0,44.0,29.43,SSE,162,2.0,7.0,92,-99.99,,,-99.99,,2013-03-20 12:11:00,
2013-03-20 05:22:00,46.0,44.0,29.41,SSE,161,1.0,7.0,92,-99.99,,,-99.99,,2013-03-20 12:22:00,
2013-03-20 05:32:00,46.0,44.0,29.41,SE,144,0.0,5.0,92,-99.99,,,-99.99,,2013-03-20 12:32:00,
2013-03-20 05:42:00,46.0,44.0,29.41,SE,144,0.0,5.0,92,-99.99,,,-99.99,,2013-03-20 12:42:00,
2013-03-20 05:52:00,46.0,44.0,29.39,South,170,0.0,4.0,93,-99.99,,,-99.99,,2013-03-20 12:52:00,
2013-03-20 06:02:00,46.0,44.0,29.39,SSE,153,2.0,5.0,94,-99.99,,,-99.99,,2013-03-20 13:02:00,
2013-03-20 06:12:00,46.0,44.0,29.39,SSE,153,2.0,5.0,94,-99.99,,,-99.99,,2013-03-20 13:12:00,
2013-03-20 06:22:00,46.0,44.0,29.39,ESE,110,1.0,5.0,94,-99.99,,,-99.99,,2013-03-20 13:22:00,
2013-03-20 06:31:00,46.0,45.0,29.37,East,96,0.0,5.0,95,-99.99,,,-99.99,,2013-03-20 13:31:00,
2013-03-20 06:41:00,46.0,45.0,29.37,East,96,0.0,5.0,95,-99.99,,,-99.99,,2013-03-20 13:41:00,
2013-03-20 06:52:00,46.0,45.0,29.37,East,94,0.0,2.0,95,-99.99,,,-99.99,,2013-03-20 13:52:00,
2013-03-20 07:01:00,46.0,45.0,29.36,ESE,111,1.0,4.0,95,-99.99,,,-99.99,,2013-03-20 14:01:00,
2013-03-20 07:11:00,46.0,45.0,29.36,ESE,111,1.0,4.0,95,-99.99,,,-99.99,,2013-03-20 14:11:00,
2013-03-20 07:22:00,47.0,46.0,29.35,ENE,72,1.0,7.0,95,-99.99,,,-99.99,,2013-03-20 14:22:00,
2013-03-20 07:32:00,47.0,46.0,29.35,SE,146,3.0,14.0,95,-99.99,,,-99.99,,2013-03-20 14:32:00,
2013-03-20 07:42:00,47.0,46.0,29.35,SE,146,3.0,14.0,95,-99.99,,,-99.99,,2013-03-20 14:42:00,
2013-03-20 07:52:00,47.0,46.0,29.35,ESE,123,5.0,9.0,95,-99.99,,,-99.99,,2013-03-20 14:52:00,
2013-03-20 08:02:00,47.0,45.0,29.36,SE,145,6.0,17.0,94,-99.99,,,-99.99,,2013-03-20 15:02:00,
2013-03-20 08:12:00,47.0,45.0,29.36,SSE,157,6.0,19.0,94,-99.99,,,-99.99,,2013-03-20 15:12:00,
2013-03-20 08:21:00,47.0,45.0,29.36,SSE,157,6.0,19.0,94,-99.99,,,-99.99,,2013-03-20 15:21:00,
2013-03-20 08:32:00,47.0,45.0,29.36,SSE,160,5.0,11.0,94,-99.99,,,-99.99,,2013-03-20 15:32:00,
2013-03-20 08:42:00,47.0,45.0,29.36,SSE,160,5.0,11.0,94,-99.99,,,-99.99,,2013-03-20 15:42:00,
2013-03-20 08:52:00,48.0,46.0,29.36,SSE,156,4.0,13.0,94,-99.99,,,-99.99,,2013-03-20 15:52:00,
2013-03-20 09:02:00,48.0,46.0,29.36,SSE,159,9.0,15.0,94,-99.99,,,-99.99,,2013-03-20 16:02:00,
2013-03-20 09:12:00,48.0,46.0,29.36,SSE,159,9.0,15.0,94,-99.99,,,-99.99,,2013-03-20 16:12:00,
2013-03-20 09:22:00,49.0,47.0,29.36,SSE,159,4.0,14.0,94,-99.99,,,-99.99,,2013-03-20 16:22:00,
2013-03-20 09:32:00,49.0,47.0,29.37,SSE,162,11.0,14.0,94,-99.99,,,-99.99,,2013-03-20 16:32:00,
2013-03-20 09:42:00,49.0,47.0,29.37,SSE,162,11.0,14.0,94,-99.99,,,-99.99,,2013-03-20 16:42:00,
2013-03-20 09:52:00,50.0,48.0,29.37,SSW,209,4.0,21.0,93,-99.99,,,-99.99,,2013-03-20 16:52:00,
2013-03-20 10:02:00,49.0,46.0,29.40,SSW,206,7.0,18.0,91,-99.99,,,-99.99,,2013-03-20 17:02:00,
2013-03-20 10:11:00,49.0,46.0,29.40,SSW,206,7.0,18.0,91,-99.99,,,-99.99,,2013-03-20 17:11:00,
2013-03-20 10:21:00,48.0,45.0,29.40,WSW,243,4.0,22.0,88,-99.99,,,-99.99,,2013-03-20 17:21:00,
2013-03-20 10:32:00,49.0,44.0,29.41,South,185,4.0,22.0,82,-99.99,,,-99.99,,2013-03-20 17:32:00,
2013-03-20 10:42:00,49.0,44.0,29.41,South,185,4.0,22.0,82,-99.99,,,-99.99,,2013-03-20 17:42:00,
2013-03-20 11:02:00,50.0,43.0,29.45,SSW,210,8.0,24.0,78,-99.99,,,-99.99,,2013-03-20 18:02:00,
2013-03-20 11:12:00,50.0,43.0,29.45,SSW,210,8.0,24.0,78,-99.99,,,-99.99,,2013-03-20 18:12:00,
2013-03-20 11:22:00,51.0,43.0,29.46,SW,214,7.0,22.0,75,-99.99,,,-99.99,,2013-03-20 18:22:00,
2013-03-20 11:32:00,51.0,43.0,29.48,SSW,200,7.0,20.0,74,-99.99,,,-99.99,,2013-03-20 18:32:00,
2013-03-20 11:42:00,51.0,43.0,29.48,SSW,200,7.0,20.0,74,-99.99,,,-99.99,,2013-03-20 18:42:00,
2013-03-20 11:52:00,50.0,42.0,29.48,SSW,205,10.0,27.0,73,-99.99,,,-99.99,,2013-03-20 18:52:00,
2013-03-20 12:01:00,50.0,41.0,29.49,SW,221,3.0,24.0,72,-99.99,,,-99.99,,2013-03-20 19:01:00,
2013-03-20 12:11:00,50.0,41.0,29.49,SW,221,3.0,24.0,72,-99.99,,,-99.99,,2013-03-20 19:11:00,
2013-03-20 12:21:00,51.0,41.0,29.52,SSW,201,7.0,22.0,69,-99.99,,,-99.99,,2013-03-20 19:21:00,
2013-03-20 12:32:00,52.0,41.0,29.52,South,189,7.0,20.0,66,-99.99,,,-99.99,,2013-03-20 19:32:00,
2013-03-20 12:42:00,52.0,41.0,29.52,South,189,7.0,20.0,66,-99.99,,,-99.99,,2013-03-20 19:42:00,
2013-03-20 12:53:00,51.0,42.0,29.53,South,174,6.0,16.0,71,-99.99,,,-99.99,,2013-03-20 19:53:00,
2013-03-20 13:01:00,49.0,40.0,29.54,South,179,2.0,28.0,71,-99.99,,,-99.99,,2013-03-20 20:01:00,
2013-03-20 13:12:00,49.0,40.0,29.54,South,179,2.0,28.0,71,-99.99,,,-99.99,,2013-03-20 20:12:00,
2013-03-20 13:22:00,48.0,39.0,29.55,SSW,199,7.0,18.0,72,-99.99,,,-99.99,,2013-03-20 20:22:00,
2013-03-20 13:31:00,48.0,40.0,29.57,South,170,8.0,20.0,74,-99.99,,,-99.99,,2013-03-20 20:31:00,
2013-03-20 13:42:00,48.0,40.0,29.57,South,170,8.0,20.0,74,-99.99,,,-99.99,,2013-03-20 20:42:00,
2013-03-20 13:52:00,50.0,41.0,29.57,South,173,10.0,25.0,72,-99.99,,,-99.99,,2013-03-20 20:52:00,
2013-03-20 14:02:00,50.0,41.0,29.57,SW,217,5.0,23.0,72,-99.99,,,-99.99,,2013-03-20 21:02:00,
2013-03-20 14:11:00,50.0,41.0,29.57,SW,217,5.0,23.0,72,-99.99,,,-99.99,,2013-03-20 21:11:00,
2013-03-20 14:22:00,50.0,41.0,29.58,SSE,168,4.0,17.0,71,-99.99,,,-99.99,,2013-03-20 21:22:00,
2013-03-20 14:33:00,49.0,40.0,29.58,SSE,163,4.0,18.0,72,-99.99,,,-99.99,,2013-03-20 21:33:00,
2013-03-20 14:42:00,49.0,40.0,29.58,SSE,163,4.0,18.0,72,-99.99,,,-99.99,,2013-03-20 21:42:00,
2013-03-20 14:52:00,50.0,41.0,29.58,SSE,154,4.0,23.0,70,-99.99,,,-99.99,,2013-03-20 21:52:00,
2013-03-20 15:02:00,50.0,41.0,29.59,SSW,212,4.0,26.0,70,-99.99,,,-99.99,,2013-03-20 22:02:00,
2013-03-20 15:12:00,50.0,41.0,29.59,SSW,212,4.0,26.0,70,-99.99,,,-99.99,,2013-03-20 22:12:00,
2013-03-20 15:22:00,49.0,40.0,29.59,SSW,208,10.0,26.0,70,-99.99,,,-99.99,,2013-03-20 22:22:00,
2013-03-20 15:32:00,49.0,40.0,29.59,SSW,195,4.0,19.0,70,-99.99,,,-99.99,,2013-03-20 22:32:00,
2013-03-20 15:42:00,49.0,40.0,29.59,SSW,195,4.0,19.0,70,-99.99,,,-99.99,,2013-03-20 22:42:00,
2013-03-20 15:52:00,48.0,40.0,29.61,WSW,241,4.0,20.0,73,-99.99,,,-99.99,,2013-03-20 22:52:00,
2013-03-20 16:02:00,49.0,40.0,29.61,SW,215,10.0,21.0,70,-99.99,,,-99.99,,2013-03-20 23:02:00,
2013-03-20 16:12:00,49.0,40.0,29.61,SW,215,10.0,21.0,70,-99.99,,,-99.99,,2013-03-20 23:12:00,
2013-03-20 16:22:00,50.0,39.0,29.62,South,179,1.0,15.0,67,-99.99,,,-99.99,,2013-03-20 23:22:00,
2013-03-20 16:31:00,51.0,40.0,29.63,SSW,196,6.0,16.0,65,-99.99,,,-99.99,,2013-03-20 23:31:00,
2013-03-20 16:42:00,51.0,40.0,29.63,SSW,196,6.0,16.0,65,-99.99,,,-99.99,,2013-03-20 23:42:00,
2013-03-20 16:52:00,50.0,38.0,29.63,South,180,3.0,19.0,63,-99.99,,,-99.99,,2013-03-20 23:52:00,
2013-03-20 17:01:00,49.0,37.0,29.65,SW,228,7.0,17.0,64,-99.99,,,-99.99,,2013-03-21 00:01:00,
2013-03-20 17:11:00,49.0,37.0,29.65,SW,228,7.0,17.0,64,-99.99,,,-99.99,,2013-03-21 00:11:00,
2013-03-20 17:22:00,49.0,38.0,29.65,SSW,192,8.0,20.0,65,-99.99,,,-99.99,,2013-03-21 00:22:00,
2013-03-20 17:32:00,49.0,38.0,29.66,SSW,202,6.0,23.0,66,-99.99,,,-99.99,,2013-03-21 00:32:00,
2013-03-20 17:41:00,49.0,38.0,29.66,SSW,202,6.0,23.0,66,-99.99,,,-99.99,,2013-03-21 00:41:00,
2013-03-20 17:52:00,49.0,37.0,29.67,SSW,208,6.0,19.0,64,-99.99,,,-99.99,,2013-03-21 00:52:00,
2013-03-20 18:02:00,49.0,37.0,29.67,South,183,7.0,15.0,63,-99.99,,,-99.99,,2013-03-21 01:02:00,
2013-03-20 18:11:00,49.0,37.0,29.67,South,183,7.0,15.0,63,-99.99,,,-99.99,,2013-03-21 01:11:00,
2013-03-20 18:21:00,48.0,37.0,29.68,SSW,192,5.0,18.0,66,-99.99,,,-99.99,,2013-03-21 01:21:00,
2013-03-20 18:32:00,46.0,37.0,29.71,SW,225,4.0,17.0,70,-99.99,,,-99.99,,2013-03-21 01:32:00,
2013-03-20 18:42:00,46.0,37.0,29.71,SW,225,4.0,17.0,70,-99.99,,,-99.99,,2013-03-21 01:42:00,
2013-03-20 18:52:00,46.0,36.0,29.71,SSW,198,6.0,13.0,69,-99.99,,,-99.99,,2013-03-21 01:52:00,
2013-03-20 19:01:00,46.0,36.0,29.72,SW,233,5.0,15.0,68,-99.99,,,-99.99,,2013-03-21 02:01:00,
2013-03-20 19:12:00,46.0,36.0,29.72,SW,233,5.0,15.0,68,-99.99,,,-99.99,,2013-03-21 02:12:00,
2013-03-20 19:22:00,45.0,36.0,29.75,SSW,201,4.0,17.0,70,-99.99,,,-99.99,,2013-03-21 02:22:00,
2013-03-20 19:32:00,44.0,35.0,29.75,South,184,7.0,14.0,70,-99.99,,,-99.99,,2013-03-21 02:32:00,
2013-03-20 19:41:00,44.0,35.0,29.75,South,184,7.0,14.0,70,-99.99,,,-99.99,,2013-03-21 02:41:00,
2013-03-20 19:52:00,44.0,35.0,29.75,South,184,7.0,14.0,70,-99.99,,,-99.99,,2013-03-21 02:52:00,
2013-03-20 20:01:00,43.0,34.0,29.77,SSE,164,2.0,14.0,69,-99.99,,,-99.99,,2013-03-21 03:01:00,
2013-03-20 20:11:00,43.0,34.0,29.77,SSE,164,2.0,14.0,69,-99.99,,,-99.99,,2013-03-21 03:11:00,
2013-03-20 20:21:00,43.0,33.0,29.79,South,185,6.0,15.0,68,-99.99,,,-99.99,,2013-03-21 03:21:00,
2013-03-20 20:32:00,42.0,32.0,29.80,SSE,155,4.0,13.0,68,-99.99,,,-99.99,,2013-03-21 03:32:00,
2013-03-20 20:43:00,42.0,32.0,29.80,SSE,155,4.0,13.0,68,-99.99,,,-99.99,,2013-03-21 03:43:00,
2013-03-20 20:52:00,42.0,33.0,29.82,SSW,194,2.0,21.0,69,-99.99,,,-99.99,,2013-03-21 03:52:00,
2013-03-20 21:02:00,42.0,33.0,29.84,SSW,206,5.0,16.0,71,-99.99,,,-99.99,,2013-03-21 04:02:00,
2013-03-20 21:12:00,42.0,33.0,29.84,SSW,206,5.0,16.0,71,-99.99,,,-99.99,,2013-03-21 04:12:00,
2013-03-20 21:22:00,41.0,33.0,29.88,SSW,198,3.0,10.0,74,-99.99,,,-99.99,,2013-03-21 04:22:00,
2013-03-20 21:32:00,41.0,33.0,29.88,SW,217,1.0,9.0,74,-99.99,,,-99.99,,2013-03-21 04:32:00,
2013-03-20 21:43:00,41.0,33.0,29.88,SW,217,1.0,9.0,74,-99.99,,,-99.99,,2013-03-21 04:43:00,
2013-03-20 21:53:00,41.0,34.0,29.91,North,10,0.0,11.0,76,-99.99,,,-99.99,,2013-03-21 04:53:00,
2013-03-20 22:02:00,41.0,34.0,29.93,SW,223,1.0,11.0,77,-99.99,,,-99.99,,2013-03-21 05:02:00,
2013-03-20 22:12:00,41.0,34.0,29.93,SW,223,1.0,11.0,77,-99.99,,,-99.99,,2013-03-21 05:12:00,
2013-03-20 22:21:00,40.0,34.0,29.93,North,9,0.0,5.0,79,-99.99,,,-99.99,,2013-03-21 05:21:00,
2013-03-20 22:32:00,38.0,34.0,29.94,NE,56,1.0,5.0,85,-99.99,,,-99.99,,2013-03-21 05:32:00,
2013-03-20 22:43:00,38.0,35.0,29.96,NE,49,2.0,5.0,88,-99.99,,,-99.99,,2013-03-21 05:43:00,
2013-03-20 22:51:00,38.0,35.0,29.96,NE,49,2.0,5.0,88,-99.99,,,-99.99,,2013-03-21 05:51:00,
2013-03-20 23:02:00,38.0,35.0,29.96,SE,125,0.0,3.0,89,-99.99,,,-99.99,,2013-03-21 06:02:00,
2013-03-20 23:11:00,38.0,35.0,29.96,SE,125,0.0,3.0,89,-99.99,,,-99.99,,2013-03-21 06:11:00,
2013-03-20 23:22:00,38.0,35.0,29.96,SSE,153,0.0,3.0,90,-99.99,,,-99.99,,2013-03-21 06:22:00,
2013-03-20 23:31:00,38.0,34.0,29.97,South,170,2.0,5.0,87,-99.99,,,-99.99,,2013-03-21 06:31:00,
2013-03-20 23:42:00,38.0,34.0,29.97,South,170,2.0,5.0,87,-99.99,,,-99.99,,2013-03-21 06:42:00,
2013-03-20 23:52:00,38.0,33.0,29.97,SE,144,2.0,9.0,82,-99.99,,,-99.99,,2013-03-21 06:52:00,